This is the latest recevied weather packets stored in our database for station/object OK1OBR-13. If no packets are shown the sender has not sent any weather packets the latest 1 day(s).
| Time | Temp. | Humidity | Pressure | Rain* | Wind** | Luminosity | Snow |
|---|---|---|---|---|---|---|---|
| 1777964401 | 15° C | 52% | 931.1 hPa | 0 mm | 0.89 m/s, 160° | - | - |
| 1777964342 | 14.44° C | 54% | 931 hPa | 0 mm | 0.89 m/s, 150° | - | - |
| 1777964281 | 14.44° C | 53% | 931.3 hPa | 0 mm | 0.89 m/s, 151° | - | - |
| 1777964221 | 14.44° C | 54% | 931 hPa | 0 mm | 0.89 m/s, 188° | - | - |
| 1777964161 | 14.44° C | 54% | 931.2 hPa | 0 mm | 1.34 m/s, 165° | - | - |
| 1777964101 | 14.44° C | 53% | 931.4 hPa | 0 mm | 1.34 m/s, 207° | - | - |
| 1777964041 | 14.44° C | 52% | 931 hPa | 0 mm | 0.89 m/s, 164° | - | - |
| 1777963981 | 14.44° C | 52% | 931.1 hPa | 0 mm | 1.34 m/s, 147° | - | - |
| 1777963921 | 14.44° C | 52% | 931.1 hPa | 0 mm | 1.34 m/s, 170° | - | - |
| 1777963862 | 14.44° C | 52% | 931 hPa | 0 mm | 1.34 m/s, 190° | - | - |
| 1777963801 | 14.44° C | 53% | 931 hPa | 0 mm | 0.89 m/s, 196° | - | - |
| 1777963742 | 14.44° C | 54% | 931 hPa | 0 mm | 0.89 m/s, 192° | - | - |
| 1777963681 | 14.44° C | 53% | 931 hPa | 0 mm | 1.34 m/s, 175° | - | - |
| 1777963621 | 14.44° C | 55% | 931.2 hPa | 0 mm | 0.89 m/s, 156° | - | - |
| 1777963561 | 14.44° C | 52% | 931.1 hPa | 0 mm | 0.89 m/s, 161° | - | - |
| 1777963500 | 14.44° C | 54% | 931.1 hPa | 0 mm | 0.89 m/s, 156° | - | - |
| 1777963442 | 14.44° C | 53% | 931 hPa | 0 mm | 1.34 m/s, 165° | - | - |
| 1777963381 | 14.44° C | 53% | 931 hPa | 0 mm | 1.34 m/s, 176° | - | - |
| 1777963321 | 14.44° C | 53% | 931 hPa | 0 mm | 1.34 m/s, 151° | - | - |
| 1777963261 | 14.44° C | 53% | 931 hPa | 0 mm | 1.34 m/s, 154° | - | - |
| 1777963203 | 13.89° C | 54% | 931.3 hPa | 0 mm | 1.34 m/s, 146° | - | - |
| 1777963142 | 13.89° C | 54% | 931.1 hPa | 0 mm | 1.34 m/s, 166° | - | - |
| 1777963081 | 13.89° C | 54% | 931 hPa | 0 mm | 0.89 m/s, 149° | - | - |
| 1777963021 | 13.89° C | 54% | 931 hPa | 0 mm | 0.89 m/s, 195° | - | - |
| 1777962961 | 13.89° C | 53% | 931 hPa | 0 mm | 0.89 m/s, 149° | - | - |
* Rain since midnight (hover to see other rain measurements)
** Current wind speed in m/s (hover to see current wind gust speed)